Tracking 29892 objects as of 21-Nov-2024
HD Live streaming from Space Station
objects crossing your sky now

GALILEO 30 (10E)

Track GALILEO 30 (10E) now!
GALILEO 30 (10E) is classified as:


NORAD ID: 59600
Int'l Code: 2024-079C
Perigee: 23,217.9 km
Apogee: 23,240.6 km
Inclination: 54.8 °
Period: 844.7 minutes
Semi major axis: 29600 km
RCS: Unknown
Launch date: April 28, 2024
Source: European Space Agency (ESA)
Launch site: AIR FORCE EASTERN TEST RANGE (AFETR)
Your satellite tracking list
Your tracking list is empty




NASA's NSSDC Master Catalog

Two Line Element Set (TLE):
1 59600U 24079C   24323.56661993  .00000033  00000-0  00000-0 0  9997
2 59600  54.7769 117.1878 0003831 115.6955 244.3160  1.70474673  3563
Source of the keplerian elements: AFSPC